STARLINK-1012 (44718 NORAD) Tracking and Keplerian Element Data

This shows tracking and keplerian element data for the satellite.

Feedback or suggestion? Click here.




ElementValue
Catalog44718
NameSTARLINK-1012
Epoch Orbit2208
Epoch Day92.08334491
Epoch Year2020
RAAN201.8727
Inclination52.9987
Eccentricity0.0001021
Argument of Perigee83.902
Mean Anonmoly78.3225
Mean Motion15.05478985
Decay Rate0.00517492
L11 44718U 19074F 20092.08334491 .00517492 00000-0 33466-1 0 9991
L22 44718 52.9987 201.8727 0001021 83.9020 78.3225 15.05478985 22080

Live tracking and technical data element details for STARLINK-1012 (NORAD 44718). STARLINK-1012 can be tracked NOW for your location showing map with azimuth and elevation plus other details from your city location.

Track the satellite on the map from your city or location and see movement details for azimuth, elevation, latitude, longitude, range, height, and movement on the map or in text.







IsCatalogInMostPopularTable: catalog: 44718, numindb: 25
Update: records affected: 1



GetName: 44718 STARLINK-1012

Hit Count: updated at: Fri, 10 Apr 2020 18:51:30 GMT